owner,sensor,date,latitude,longitude,vertical_datum,sea_water_temperature,qcFlag
Beacon,ioos:station:wmo:42874:2,2021-08-01T00:05:00Z,29.0393,-87.9224,30.0,28.1,11111222
Beacon,ioos:station:wmo:42874:2,2021-08-01T00:15:00Z,29.0393,-87.9224,30.0,28.0,11111222
Beacon,ioos:station:wmo:42874:2,2021-08-01T00:26:00Z,29.0395,-87.9222,30.0,28.0,11111222
Beacon,ioos:station:wmo:42874:2,2021-08-01T00:35:00Z,29.0395,-87.9221,30.0,28.1,11111222
Beacon,ioos:station:wmo:42874:2,2021-08-01T00:46:00Z,29.0394,-87.9222,30.0,28.1,11111222
Beacon,ioos:station:wmo:42874:2,2021-08-01T00:57:00Z,29.0394,-87.9222,30.0,28.1,11111222
Beacon,ioos:station:wmo:42874:2,2021-08-01T01:05:00Z,29.0394,-87.9222,30.0,28.0,11111222
Beacon,ioos:station:wmo:42874:2,2021-08-01T01:16:00Z,29.0392,-87.9222,30.0,27.9,11111222
Beacon,ioos:station:wmo:42874:2,2021-08-01T01:26:00Z,29.0391,-87.9221,30.0,28.0,11111222
Beacon,ioos:station:wmo:42874:2,2021-08-01T01:35:00Z,29.0391,-87.9223,30.0,28.0,11111222
Beacon,ioos:station:wmo:42874:2,2021-08-01T01:46:00Z,29.0394,-87.9224,30.0,28.1,11111222
Beacon,ioos:station:wmo:42874:2,2021-08-01T01:56:00Z,29.0396,-87.9221,30.0,27.8,11111222
Beacon,ioos:station:wmo:42874:2,2021-08-01T02:06:00Z,29.0394,-87.9224,30.0,27.6,11111222
Beacon,ioos:station:wmo:42874:2,2021-08-01T02:16:00Z,29.0394,-87.9224,30.0,27.7,11111222
Beacon,ioos:station:wmo:42874:2,2021-08-01T02:26:00Z,29.0396,-87.9222,30.0,27.8,11111222
Beacon,ioos:station:wmo:42874:2,2021-08-01T02:36:00Z,29.0396,-87.9222,30.0,27.9,11111222
Beacon,ioos:station:wmo:42874:2,2021-08-01T02:46:00Z,29.0396,-87.9222,30.0,27.9,11111222
Beacon,ioos:station:wmo:42874:2,2021-08-01T02:56:00Z,29.0395,-87.9223,30.0,28.0,11111222
Beacon,ioos:station:wmo:42874:2,2021-08-01T03:07:00Z,29.0395,-87.9223,30.0,28.1,11111222
Beacon,ioos:station:wmo:42874:2,2021-08-01T03:17:00Z,29.0395,-87.9222,30.0,28.0,11111222
Beacon,ioos:station:wmo:42874:2,2021-08-01T03:26:00Z,29.0395,-87.9222,30.0,28.0,11111222
Beacon,ioos:station:wmo:42874:2,2021-08-01T03:36:00Z,29.0396,-87.9222,30.0,28.1,11111222
Beacon,ioos:station:wmo:42874:2,2021-08-01T03:46:00Z,29.0396,-87.9222,30.0,28.0,11111222
Beacon,ioos:station:wmo:42874:2,2021-08-01T03:57:00Z,29.0396,-87.9222,30.0,27.9,11111222
Beacon,ioos:station:wmo:42874:2,2021-08-01T04:06:00Z,29.0396,-87.9222,30.0,27.6,11111222
Beacon,ioos:station:wmo:42874:2,2021-08-01T04:16:00Z,29.0395,-87.9223,30.0,27.5,11111222
Beacon,ioos:station:wmo:42874:2,2021-08-01T04:26:00Z,29.0394,-87.9224,30.0,27.6,11111222
Beacon,ioos:station:wmo:42874:2,2021-08-01T04:36:00Z,29.0394,-87.9224,30.0,27.6,11111222
Beacon,ioos:station:wmo:42874:2,2021-08-01T04:46:00Z,29.0393,-87.9224,30.0,27.5,11111222
Beacon,ioos:station:wmo:42874:2,2021-08-01T04:56:00Z,29.0394,-87.9223,30.0,27.5,11111222
Beacon,ioos:station:wmo:42874:2,2021-08-01T05:06:00Z,29.0394,-87.9222,30.0,27.5,11111222
Beacon,ioos:station:wmo:42874:2,2021-08-01T05:17:00Z,29.0394,-87.9222,30.0,27.5,11111222
Beacon,ioos:station:wmo:42874:2,2021-08-01T05:26:00Z,29.0394,-87.9222,30.0,27.5,11111222
Beacon,ioos:station:wmo:42874:2,2021-08-01T05:37:00Z,29.0394,-87.9222,30.0,27.6,11111222
Beacon,ioos:station:wmo:42874:2,2021-08-01T05:47:00Z,29.0395,-87.9222,30.0,27.6,11111222
Beacon,ioos:station:wmo:42874:2,2021-08-01T05:57:00Z,29.0395,-87.9222,30.0,27.7,11111222
Beacon,ioos:station:wmo:42874:2,2021-08-01T06:06:00Z,29.0395,-87.9222,30.0,27.6,11111222
Beacon,ioos:station:wmo:42874:2,2021-08-01T06:17:00Z,29.0396,-87.9222,30.0,27.6,11111222
Beacon,ioos:station:wmo:42874:2,2021-08-01T06:27:00Z,29.0396,-87.9222,30.0,27.7,11111222
Beacon,ioos:station:wmo:42874:2,2021-08-01T06:36:00Z,29.0396,-87.9222,30.0,27.9,11111222
Beacon,ioos:station:wmo:42874:2,2021-08-01T06:46:00Z,29.0396,-87.9222,30.0,27.9,11111222
Beacon,ioos:station:wmo:42874:2,2021-08-01T06:56:00Z,29.0397,-87.9222,30.0,27.9,11111222
Beacon,ioos:station:wmo:42874:2,2021-08-01T07:06:00Z,29.0397,-87.9222,30.0,28.0,11111222
Beacon,ioos:station:wmo:42874:2,2021-08-01T07:16:00Z,29.0397,-87.9221,30.0,28.0,11111222
Beacon,ioos:station:wmo:42874:2,2021-08-01T07:26:00Z,29.0397,-87.9221,30.0,27.9,11111222
Beacon,ioos:station:wmo:42874:2,2021-08-01T07:36:00Z,29.0397,-87.9221,30.0,27.8,11111222
Beacon,ioos:station:wmo:42874:2,2021-08-01T07:46:00Z,29.0397,-87.9221,30.0,27.8,11111222
Beacon,ioos:station:wmo:42874:2,2021-08-01T07:56:00Z,29.0397,-87.9221,30.0,27.9,11111222
Beacon,ioos:station:wmo:42874:2,2021-08-01T08:06:00Z,29.0394,-87.9224,30.0,27.8,11111222
Beacon,ioos:station:wmo:42874:2,2021-08-01T08:17:00Z,29.0395,-87.9222,30.0,27.9,11111222
Beacon,ioos:station:wmo:42874:2,2021-08-01T08:26:00Z,29.0395,-87.9222,30.0,27.9,11111222
Beacon,ioos:station:wmo:42874:2,2021-08-01T08:36:00Z,29.0395,-87.9222,30.0,27.8,11111222
Beacon,ioos:station:wmo:42874:2,2021-08-01T08:47:00Z,29.0395,-87.9222,30.0,27.7,11111222
Beacon,ioos:station:wmo:42874:2,2021-08-01T08:56:00Z,29.0395,-87.9222,30.0,27.6,11111222
Beacon,ioos:station:wmo:42874:2,2021-08-01T09:05:00Z,29.0395,-87.9222,30.0,27.6,11111222
Beacon,ioos:station:wmo:42874:2,2021-08-01T09:16:00Z,29.0395,-87.9222,30.0,27.6,11111222
Beacon,ioos:station:wmo:42874:2,2021-08-01T09:26:00Z,29.0396,-87.9222,30.0,27.6,11111222
Beacon,ioos:station:wmo:42874:2,2021-08-01T09:37:00Z,29.0396,-87.9222,30.0,27.7,11111222
Beacon,ioos:station:wmo:42874:2,2021-08-01T09:46:00Z,29.0396,-87.9222,30.0,27.6,11111222
Beacon,ioos:station:wmo:42874:2,2021-08-01T09:56:00Z,29.0396,-87.9222,30.0,27.5,11111222
Beacon,ioos:station:wmo:42874:2,2021-08-01T10:06:00Z,29.0396,-87.9222,30.0,27.5,11111222
Beacon,ioos:station:wmo:42874:2,2021-08-01T10:16:00Z,29.0396,-87.9222,30.0,27.5,11111222
Beacon,ioos:station:wmo:42874:2,2021-08-01T10:26:00Z,29.0396,-87.9222,30.0,27.5,11111222
Beacon,ioos:station:wmo:42874:2,2021-08-01T10:36:00Z,29.0396,-87.9222,30.0,27.5,11111222
Beacon,ioos:station:wmo:42874:2,2021-08-01T10:46:00Z,29.0396,-87.9222,30.0,27.6,11111222
Beacon,ioos:station:wmo:42874:2,2021-08-01T10:57:00Z,29.0396,-87.9222,30.0,27.6,11111222
Beacon,ioos:station:wmo:42874:2,2021-08-01T11:07:00Z,29.0396,-87.9222,30.0,27.6,11111222
Beacon,ioos:station:wmo:42874:2,2021-08-01T11:16:00Z,29.0396,-87.9222,30.0,27.5,11111222
Beacon,ioos:station:wmo:42874:2,2021-08-01T11:27:00Z,29.0396,-87.9222,30.0,27.4,11111222
Beacon,ioos:station:wmo:42874:2,2021-08-01T11:36:00Z,29.0396,-87.9222,30.0,27.4,11111222
Beacon,ioos:station:wmo:42874:2,2021-08-01T11:46:00Z,29.0396,-87.9222,30.0,27.4,11111222
Beacon,ioos:station:wmo:42874:2,2021-08-01T11:56:00Z,29.0396,-87.9222,30.0,27.3,11111222
Beacon,ioos:station:wmo:42874:2,2021-08-01T12:05:00Z,29.0396,-87.9222,30.0,27.3,11111222
Beacon,ioos:station:wmo:42874:2,2021-08-01T12:16:00Z,29.0396,-87.9222,30.0,27.3,11111222
Beacon,ioos:station:wmo:42874:2,2021-08-01T12:27:00Z,29.0396,-87.9222,30.0,27.6,11111222
Beacon,ioos:station:wmo:42874:2,2021-08-01T12:37:00Z,29.0396,-87.9222,30.0,27.6,11111222
Beacon,ioos:station:wmo:42874:2,2021-08-01T12:47:00Z,29.0396,-87.9222,30.0,27.7,11111222
Beacon,ioos:station:wmo:42874:2,2021-08-01T12:56:00Z,29.0396,-87.9222,30.0,27.7,11111222
Beacon,ioos:station:wmo:42874:2,2021-08-01T13:06:00Z,29.0396,-87.9222,30.0,27.7,11111222
Beacon,ioos:station:wmo:42874:2,2021-08-01T13:16:00Z,29.0396,-87.9222,30.0,27.9,11111222
Beacon,ioos:station:wmo:42874:2,2021-08-01T13:26:00Z,29.0394,-87.9223,30.0,27.8,11111222
Beacon,ioos:station:wmo:42874:2,2021-08-01T13:37:00Z,29.0394,-87.9223,30.0,27.7,11111222
Beacon,ioos:station:wmo:42874:2,2021-08-01T13:46:00Z,29.0394,-87.9223,30.0,27.9,11111222
Beacon,ioos:station:wmo:42874:2,2021-08-01T13:56:00Z,29.0394,-87.9223,30.0,28.1,11111222
Beacon,ioos:station:wmo:42874:2,2021-08-01T14:06:00Z,29.0396,-87.9223,30.0,27.9,11111222
Beacon,ioos:station:wmo:42874:2,2021-08-01T14:16:00Z,29.0396,-87.9223,30.0,27.6,11111222
Beacon,ioos:station:wmo:42874:2,2021-08-01T14:25:00Z,29.0396,-87.9222,30.0,27.6,11111222
Beacon,ioos:station:wmo:42874:2,2021-08-01T14:35:00Z,29.0396,-87.9222,30.0,27.5,11111222
Beacon,ioos:station:wmo:42874:2,2021-08-01T14:46:00Z,29.0396,-87.9222,30.0,27.4,11111222
Beacon,ioos:station:wmo:42874:2,2021-08-01T14:57:00Z,29.0396,-87.9222,30.0,27.3,11111222
Beacon,ioos:station:wmo:42874:2,2021-08-01T15:06:00Z,29.0396,-87.9221,30.0,27.4,11111222
Beacon,ioos:station:wmo:42874:2,2021-08-01T15:16:00Z,29.0396,-87.9221,30.0,27.3,11111222
Beacon,ioos:station:wmo:42874:2,2021-08-01T15:26:00Z,29.0396,-87.9221,30.0,27.4,11111222
Beacon,ioos:station:wmo:42874:2,2021-08-01T15:37:00Z,29.0397,-87.9221,30.0,27.4,11111222
Beacon,ioos:station:wmo:42874:2,2021-08-01T15:46:00Z,29.0396,-87.9221,30.0,27.4,11111222
Beacon,ioos:station:wmo:42874:2,2021-08-01T15:56:00Z,29.0396,-87.9221,30.0,27.4,11111222
Beacon,ioos:station:wmo:42874:2,2021-08-01T16:06:00Z,29.0395,-87.9221,30.0,27.4,11111222
Beacon,ioos:station:wmo:42874:2,2021-08-01T16:17:00Z,29.0395,-87.9221,30.0,27.4,11111222
Beacon,ioos:station:wmo:42874:2,2021-08-01T16:27:00Z,29.0395,-87.9221,30.0,27.6,11111222
Beacon,ioos:station:wmo:42874:2,2021-08-01T16:35:00Z,29.0396,-87.9222,30.0,27.6,11111222
Beacon,ioos:station:wmo:42874:2,2021-08-01T16:46:00Z,29.0396,-87.9222,30.0,27.7,11111222
Beacon,ioos:station:wmo:42874:2,2021-08-01T16:56:00Z,29.0396,-87.9222,30.0,27.8,11111222
Beacon,ioos:station:wmo:42874:2,2021-08-01T17:07:00Z,29.0396,-87.9221,30.0,27.8,11111222
Beacon,ioos:station:wmo:42874:2,2021-08-01T17:16:00Z,29.0396,-87.9221,30.0,27.9,11111222
Beacon,ioos:station:wmo:42874:2,2021-08-01T17:26:00Z,29.0396,-87.9221,30.0,27.7,11111222
Beacon,ioos:station:wmo:42874:2,2021-08-01T17:36:00Z,29.0396,-87.9221,30.0,27.5,11111222
Beacon,ioos:station:wmo:42874:2,2021-08-01T17:46:00Z,29.0396,-87.9221,30.0,27.4,11111222
Beacon,ioos:station:wmo:42874:2,2021-08-01T17:57:00Z,29.0396,-87.9221,30.0,27.4,11111222
Beacon,ioos:station:wmo:42874:2,2021-08-01T18:07:00Z,29.0396,-87.9221,30.0,27.5,11111222
Beacon,ioos:station:wmo:42874:2,2021-08-01T18:15:00Z,29.0396,-87.9222,30.0,27.4,11111222
Beacon,ioos:station:wmo:42874:2,2021-08-01T18:27:00Z,29.0396,-87.9222,30.0,27.5,11111222
Beacon,ioos:station:wmo:42874:2,2021-08-01T18:37:00Z,29.0396,-87.9222,30.0,27.3,11111222
Beacon,ioos:station:wmo:42874:2,2021-08-01T18:47:00Z,29.0397,-87.9221,30.0,27.6,11111222
Beacon,ioos:station:wmo:42874:2,2021-08-01T18:56:00Z,29.0397,-87.9221,30.0,27.4,11111222
Beacon,ioos:station:wmo:42874:2,2021-08-01T19:06:00Z,29.0397,-87.9221,30.0,27.2,11111222
Beacon,ioos:station:wmo:42874:2,2021-08-01T19:17:00Z,29.0397,-87.9222,30.0,27.2,11111222
Beacon,ioos:station:wmo:42874:2,2021-08-01T19:27:00Z,29.0397,-87.9222,30.0,27.3,11111222
Beacon,ioos:station:wmo:42874:2,2021-08-01T19:36:00Z,29.0396,-87.9222,30.0,27.3,11111222
Beacon,ioos:station:wmo:42874:2,2021-08-01T19:46:00Z,29.0396,-87.9222,30.0,27.2,11111222
Beacon,ioos:station:wmo:42874:2,2021-08-01T19:56:00Z,29.0395,-87.9223,30.0,27.3,11111222
Beacon,ioos:station:wmo:42874:2,2021-08-01T20:06:00Z,29.0396,-87.9222,30.0,27.3,11111222
Beacon,ioos:station:wmo:42874:2,2021-08-01T20:17:00Z,29.0396,-87.9222,30.0,27.3,11111222
Beacon,ioos:station:wmo:42874:2,2021-08-01T20:26:00Z,29.0396,-87.9222,30.0,27.4,11111222
Beacon,ioos:station:wmo:42874:2,2021-08-01T20:36:00Z,29.0396,-87.9222,30.0,27.3,11111222
Beacon,ioos:station:wmo:42874:2,2021-08-01T20:47:00Z,29.0397,-87.9221,30.0,27.2,11111222
Beacon,ioos:station:wmo:42874:2,2021-08-01T20:56:00Z,29.0397,-87.9221,30.0,27.2,11111222
Beacon,ioos:station:wmo:42874:2,2021-08-01T21:07:00Z,29.0397,-87.9222,30.0,27.3,11111222
Beacon,ioos:station:wmo:42874:2,2021-08-01T21:16:00Z,29.0397,-87.9222,30.0,27.3,11111222
Beacon,ioos:station:wmo:42874:2,2021-08-01T21:25:00Z,29.0396,-87.9222,30.0,27.3,11111222
Beacon,ioos:station:wmo:42874:2,2021-08-01T21:37:00Z,29.0396,-87.9224,30.0,27.4,11111222
Beacon,ioos:station:wmo:42874:2,2021-08-01T21:46:00Z,29.0397,-87.9223,30.0,27.4,11111222
Beacon,ioos:station:wmo:42874:2,2021-08-01T21:56:00Z,29.0387,-87.9220,30.0,28.0,11111222
Beacon,ioos:station:wmo:42874:2,2021-08-01T22:06:00Z,29.0384,-87.9220,30.0,27.9,11111222
Beacon,ioos:station:wmo:42874:2,2021-08-01T22:16:00Z,29.0383,-87.9220,30.0,27.3,11111222
Beacon,ioos:station:wmo:42874:2,2021-08-01T22:25:00Z,29.0383,-87.9221,30.0,27.3,11111222
Beacon,ioos:station:wmo:42874:2,2021-08-01T22:36:00Z,29.0383,-87.9221,30.0,27.4,11111222
Beacon,ioos:station:wmo:42874:2,2021-08-01T22:45:00Z,29.0383,-87.9221,30.0,27.4,11111222
Beacon,ioos:station:wmo:42874:2,2021-08-01T22:57:00Z,29.0383,-87.9221,30.0,27.3,11111222
Beacon,ioos:station:wmo:42874:2,2021-08-01T23:07:00Z,29.0382,-87.9221,30.0,27.3,11111222
Beacon,ioos:station:wmo:42874:2,2021-08-01T23:16:00Z,29.0382,-87.9221,30.0,27.4,11111222
Beacon,ioos:station:wmo:42874:2,2021-08-01T23:27:00Z,29.0382,-87.9221,30.0,27.5,11111222
Beacon,ioos:station:wmo:42874:2,2021-08-01T23:37:00Z,29.0382,-87.9221,30.0,27.4,11111222
Beacon,ioos:station:wmo:42874:2,2021-08-01T23:47:00Z,29.0381,-87.9222,30.0,27.4,11111222
Beacon,ioos:station:wmo:42874:2,2021-08-01T23:57:00Z,29.0381,-87.9222,30.0,27.4,11111222
Beacon,ioos:station:wmo:42874:2,2021-08-02T00:07:00Z,29.0382,-87.9222,30.0,27.5,11111222
Beacon,ioos:station:wmo:42874:2,2021-08-02T00:17:00Z,29.0382,-87.9222,30.0,27.4,11111222
Beacon,ioos:station:wmo:42874:2,2021-08-02T00:27:00Z,29.0382,-87.9221,30.0,27.4,11111222
Beacon,ioos:station:wmo:42874:2,2021-08-02T00:36:00Z,29.0380,-87.9221,30.0,27.4,11111222
Beacon,ioos:station:wmo:42874:2,2021-08-02T00:46:00Z,29.0381,-87.9223,30.0,27.3,11111222
Beacon,ioos:station:wmo:42874:2,2021-08-02T00:57:00Z,29.0381,-87.9223,30.0,27.2,11111222
Beacon,ioos:station:wmo:42874:2,2021-08-02T01:06:00Z,29.0382,-87.9222,30.0,27.2,11111222
Beacon,ioos:station:wmo:42874:2,2021-08-02T01:16:00Z,29.0375,-87.9221,30.0,27.2,11111222
Beacon,ioos:station:wmo:42874:2,2021-08-02T01:26:00Z,29.0383,-87.9221,30.0,27.1,11111222
Beacon,ioos:station:wmo:42874:2,2021-08-02T01:37:00Z,29.0384,-87.9221,30.0,27.0,11111222
Beacon,ioos:station:wmo:42874:2,2021-08-02T01:46:00Z,29.0384,-87.9221,30.0,27.1,11111222
Beacon,ioos:station:wmo:42874:2,2021-08-02T01:56:00Z,29.0384,-87.9221,30.0,27.2,11111222
Beacon,ioos:station:wmo:42874:2,2021-08-02T02:06:00Z,29.0384,-87.9221,30.0,27.1,11111222
Beacon,ioos:station:wmo:42874:2,2021-08-02T02:16:00Z,29.0384,-87.9221,30.0,27.1,11111222
Beacon,ioos:station:wmo:42874:2,2021-08-02T02:27:00Z,29.0383,-87.9221,30.0,27.1,11111222
Beacon,ioos:station:wmo:42874:2,2021-08-02T02:36:00Z,29.0383,-87.9221,30.0,27.1,11111222
Beacon,ioos:station:wmo:42874:2,2021-08-02T02:46:00Z,29.0382,-87.9222,30.0,27.1,11111222
Beacon,ioos:station:wmo:42874:2,2021-08-02T02:56:00Z,29.0382,-87.9222,30.0,27.2,11111222
Beacon,ioos:station:wmo:42874:2,2021-08-02T03:07:00Z,29.0382,-87.9222,30.0,27.2,11111222
Beacon,ioos:station:wmo:42874:2,2021-08-02T03:16:00Z,29.0382,-87.9222,30.0,27.2,11111222
Beacon,ioos:station:wmo:42874:2,2021-08-02T03:26:00Z,29.0382,-87.9222,30.0,27.3,11111222
Beacon,ioos:station:wmo:42874:2,2021-08-02T03:35:00Z,29.0382,-87.9222,30.0,27.3,11111222
Beacon,ioos:station:wmo:42874:2,2021-08-02T03:46:00Z,29.0383,-87.9222,30.0,27.3,11111222
Beacon,ioos:station:wmo:42874:2,2021-08-02T03:56:00Z,29.0383,-87.9222,30.0,27.3,11111222
Beacon,ioos:station:wmo:42874:2,2021-08-02T04:06:00Z,29.0382,-87.9222,30.0,27.2,11111222
Beacon,ioos:station:wmo:42874:2,2021-08-02T04:15:00Z,29.0382,-87.9222,30.0,27.2,11111222
Beacon,ioos:station:wmo:42874:2,2021-08-02T04:27:00Z,29.0381,-87.9224,30.0,27.1,11111222
Beacon,ioos:station:wmo:42874:2,2021-08-02T04:37:00Z,29.0380,-87.9223,30.0,27.1,11111222
Beacon,ioos:station:wmo:42874:2,2021-08-02T04:46:00Z,29.0380,-87.9224,30.0,27.2,11111222
Beacon,ioos:station:wmo:42874:2,2021-08-02T04:56:00Z,29.0381,-87.9222,30.0,27.2,11111222
Beacon,ioos:station:wmo:42874:2,2021-08-02T05:06:00Z,29.0382,-87.9221,30.0,27.1,11111222
Beacon,ioos:station:wmo:42874:2,2021-08-02T05:17:00Z,29.0382,-87.9222,30.0,27.0,11111222
Beacon,ioos:station:wmo:42874:2,2021-08-02T05:26:00Z,29.0382,-87.9222,30.0,27.1,11111222
Beacon,ioos:station:wmo:42874:2,2021-08-02T05:37:00Z,29.0381,-87.9222,30.0,27.1,11111222
Beacon,ioos:station:wmo:42874:2,2021-08-02T05:46:00Z,29.0381,-87.9222,30.0,27.1,11111222
Beacon,ioos:station:wmo:42874:2,2021-08-02T05:57:00Z,29.0381,-87.9222,30.0,27.1,11111222
Beacon,ioos:station:wmo:42874:2,2021-08-02T06:06:00Z,29.0381,-87.9222,30.0,27.1,11111222
Beacon,ioos:station:wmo:42874:2,2021-08-02T06:16:00Z,29.0381,-87.9222,30.0,27.1,11111222
Beacon,ioos:station:wmo:42874:2,2021-08-02T06:25:00Z,29.0381,-87.9222,30.0,27.1,11111222
Beacon,ioos:station:wmo:42874:2,2021-08-02T06:36:00Z,29.0383,-87.9222,30.0,27.1,11111222
Beacon,ioos:station:wmo:42874:2,2021-08-02T06:46:00Z,29.0383,-87.9222,30.0,27.1,11111222
Beacon,ioos:station:wmo:42874:2,2021-08-02T06:56:00Z,29.0383,-87.9221,30.0,27.1,11111222
Beacon,ioos:station:wmo:42874:2,2021-08-02T07:07:00Z,29.0383,-87.9221,30.0,27.1,11111222
Beacon,ioos:station:wmo:42874:2,2021-08-02T07:16:00Z,29.0382,-87.9221,30.0,27.1,11111222
Beacon,ioos:station:wmo:42874:2,2021-08-02T07:26:00Z,29.0382,-87.9221,30.0,27.2,11111222
Beacon,ioos:station:wmo:42874:2,2021-08-02T07:35:00Z,29.0382,-87.9221,30.0,27.2,11111222
Beacon,ioos:station:wmo:42874:2,2021-08-02T07:46:00Z,29.0382,-87.9222,30.0,27.2,11111222
Beacon,ioos:station:wmo:42874:2,2021-08-02T07:56:00Z,29.0378,-87.9227,30.0,27.2,11111222
Beacon,ioos:station:wmo:42874:2,2021-08-02T08:06:00Z,29.0380,-87.9224,30.0,27.1,11111222
Beacon,ioos:station:wmo:42874:2,2021-08-02T08:16:00Z,29.0380,-87.9224,30.0,27.1,11111222
Beacon,ioos:station:wmo:42874:2,2021-08-02T08:26:00Z,29.0381,-87.9223,30.0,27.1,11111222
Beacon,ioos:station:wmo:42874:2,2021-08-02T08:36:00Z,29.0381,-87.9223,30.0,27.0,11111222
Beacon,ioos:station:wmo:42874:2,2021-08-02T08:46:00Z,29.0381,-87.9222,30.0,27.0,11111222
Beacon,ioos:station:wmo:42874:2,2021-08-02T08:56:00Z,29.0381,-87.9222,30.0,27.0,11111222
Beacon,ioos:station:wmo:42874:2,2021-08-02T09:07:00Z,29.0382,-87.9222,30.0,27.1,11111222
Beacon,ioos:station:wmo:42874:2,2021-08-02T09:16:00Z,29.0382,-87.9222,30.0,27.1,11111222
Beacon,ioos:station:wmo:42874:2,2021-08-02T09:26:00Z,29.0382,-87.9222,30.0,27.1,11111222
Beacon,ioos:station:wmo:42874:2,2021-08-02T09:36:00Z,29.0382,-87.9222,30.0,27.1,11111222
Beacon,ioos:station:wmo:42874:2,2021-08-02T09:46:00Z,29.0382,-87.9222,30.0,27.0,11111222
Beacon,ioos:station:wmo:42874:2,2021-08-02T09:57:00Z,29.0383,-87.9222,30.0,27.0,11111222
Beacon,ioos:station:wmo:42874:2,2021-08-02T10:07:00Z,29.0383,-87.9222,30.0,27.0,11111222
Beacon,ioos:station:wmo:42874:2,2021-08-02T10:17:00Z,29.0383,-87.9222,30.0,26.9,11111222
Beacon,ioos:station:wmo:42874:2,2021-08-02T10:27:00Z,29.0383,-87.9222,30.0,26.9,11111222
Beacon,ioos:station:wmo:42874:2,2021-08-02T10:36:00Z,29.0382,-87.9222,30.0,26.8,11111222
Beacon,ioos:station:wmo:42874:2,2021-08-02T10:45:00Z,29.0382,-87.9222,30.0,26.8,11111222
Beacon,ioos:station:wmo:42874:2,2021-08-02T10:56:00Z,29.0382,-87.9222,30.0,26.8,11111222
Beacon,ioos:station:wmo:42874:2,2021-08-02T11:05:00Z,29.0383,-87.9222,30.0,27.0,11111222
Beacon,ioos:station:wmo:42874:2,2021-08-02T11:17:00Z,29.0383,-87.9222,30.0,27.2,11111222
Beacon,ioos:station:wmo:42874:2,2021-08-02T11:28:00Z,29.0383,-87.9222,30.0,27.2,11111222
Beacon,ioos:station:wmo:42874:2,2021-08-02T11:37:00Z,29.0383,-87.9222,30.0,27.1,11111222
Beacon,ioos:station:wmo:42874:2,2021-08-02T11:45:00Z,29.0384,-87.9221,30.0,27.0,11111222
Beacon,ioos:station:wmo:42874:2,2021-08-02T11:55:00Z,29.0383,-87.9221,30.0,26.9,11111222
Beacon,ioos:station:wmo:42874:2,2021-08-02T12:07:00Z,29.0383,-87.9221,30.0,26.9,11111222
Beacon,ioos:station:wmo:42874:2,2021-08-02T12:16:00Z,29.0383,-87.9221,30.0,26.9,11111222
Beacon,ioos:station:wmo:42874:2,2021-08-02T12:26:00Z,29.0383,-87.9221,30.0,26.9,11111222
Beacon,ioos:station:wmo:42874:2,2021-08-02T12:36:00Z,29.0383,-87.9221,30.0,26.9,11111222
Beacon,ioos:station:wmo:42874:2,2021-08-02T12:45:00Z,29.0383,-87.9221,30.0,26.9,11111222
Beacon,ioos:station:wmo:42874:2,2021-08-02T12:56:00Z,29.0383,-87.9221,30.0,26.7,11111222
Beacon,ioos:station:wmo:42874:2,2021-08-02T13:07:00Z,29.0383,-87.9221,30.0,26.7,11111222
Beacon,ioos:station:wmo:42874:2,2021-08-02T13:17:00Z,29.0383,-87.9221,30.0,26.8,11111222
Beacon,ioos:station:wmo:42874:2,2021-08-02T13:27:00Z,29.0383,-87.9221,30.0,26.6,11111222
Beacon,ioos:station:wmo:42874:2,2021-08-02T13:37:00Z,29.0383,-87.9221,30.0,26.9,11111222
Beacon,ioos:station:wmo:42874:2,2021-08-02T13:45:00Z,29.0383,-87.9221,30.0,27.1,11111222
Beacon,ioos:station:wmo:42874:2,2021-08-02T13:56:00Z,29.0383,-87.9221,30.0,27.0,11111222
Beacon,ioos:station:wmo:42874:2,2021-08-02T14:05:00Z,29.0383,-87.9221,30.0,26.9,11111222
Beacon,ioos:station:wmo:42874:2,2021-08-02T14:16:00Z,29.0383,-87.9221,30.0,26.9,11111222
Beacon,ioos:station:wmo:42874:2,2021-08-02T14:26:00Z,29.0386,-87.9219,30.0,27.0,11111222
Beacon,ioos:station:wmo:42874:2,2021-08-02T14:37:00Z,29.0386,-87.9219,30.0,27.0,11111222
Beacon,ioos:station:wmo:42874:2,2021-08-02T14:46:00Z,29.0386,-87.9219,30.0,27.3,11111222
Beacon,ioos:station:wmo:42874:2,2021-08-02T14:57:00Z,29.0384,-87.9218,30.0,27.1,11111222
Beacon,ioos:station:wmo:42874:2,2021-08-02T15:06:00Z,29.0384,-87.9218,30.0,27.0,11111222
Beacon,ioos:station:wmo:42874:2,2021-08-02T15:16:00Z,29.0384,-87.9218,30.0,27.0,11111222
Beacon,ioos:station:wmo:42874:2,2021-08-02T15:26:00Z,29.0384,-87.9218,30.0,27.1,11111222
Beacon,ioos:station:wmo:42874:2,2021-08-02T15:38:00Z,29.0384,-87.9218,30.0,27.2,11111222
Beacon,ioos:station:wmo:42874:2,2021-08-02T15:47:00Z,29.0384,-87.9218,30.0,27.1,11111222
Beacon,ioos:station:wmo:42874:2,2021-08-02T15:57:00Z,29.0384,-87.9218,30.0,27.1,11111222
Beacon,ioos:station:wmo:42874:2,2021-08-02T16:06:00Z,29.0384,-87.9218,30.0,27.0,11111222
Beacon,ioos:station:wmo:42874:2,2021-08-02T16:16:00Z,29.0384,-87.9218,30.0,27.0,11111222
Beacon,ioos:station:wmo:42874:2,2021-08-02T16:27:00Z,29.0384,-87.9218,30.0,27.0,11111222
Beacon,ioos:station:wmo:42874:2,2021-08-02T16:36:00Z,29.0384,-87.9218,30.0,26.9,11111222
Beacon,ioos:station:wmo:42874:2,2021-08-02T16:47:00Z,29.0384,-87.9218,30.0,26.9,11111222
Beacon,ioos:station:wmo:42874:2,2021-08-02T16:56:00Z,29.0384,-87.9218,30.0,26.9,11111222
Beacon,ioos:station:wmo:42874:2,2021-08-02T17:06:00Z,29.0384,-87.9218,30.0,27.0,11111222
Beacon,ioos:station:wmo:42874:2,2021-08-02T17:16:00Z,29.0384,-87.9218,30.0,27.1,11111222
Beacon,ioos:station:wmo:42874:2,2021-08-02T17:26:00Z,29.0384,-87.9218,30.0,27.2,11111222
Beacon,ioos:station:wmo:42874:2,2021-08-02T17:36:00Z,29.0384,-87.9218,30.0,27.3,11111222
Beacon,ioos:station:wmo:42874:2,2021-08-02T17:47:00Z,29.0384,-87.9218,30.0,27.4,11111222
Beacon,ioos:station:wmo:42874:2,2021-08-02T17:56:00Z,29.0384,-87.9218,30.0,27.4,11111222
Beacon,ioos:station:wmo:42874:2,2021-08-02T18:06:00Z,29.0384,-87.9218,30.0,27.4,11111222
Beacon,ioos:station:wmo:42874:2,2021-08-02T18:15:00Z,29.0384,-87.9218,30.0,27.5,11111222
Beacon,ioos:station:wmo:42874:2,2021-08-02T18:26:00Z,29.0384,-87.9218,30.0,27.5,11111222
Beacon,ioos:station:wmo:42874:2,2021-08-02T18:36:00Z,29.0384,-87.9218,30.0,27.6,11111222
Beacon,ioos:station:wmo:42874:2,2021-08-02T18:46:00Z,29.0384,-87.9218,30.0,27.5,11111222
Beacon,ioos:station:wmo:42874:2,2021-08-02T18:56:00Z,29.0385,-87.9219,30.0,27.4,11111222
Beacon,ioos:station:wmo:42874:2,2021-08-02T19:07:00Z,29.0385,-87.9219,30.0,27.4,11111222
Beacon,ioos:station:wmo:42874:2,2021-08-02T19:15:00Z,29.0385,-87.9219,30.0,27.4,11111222
Beacon,ioos:station:wmo:42874:2,2021-08-02T19:26:00Z,29.0384,-87.9218,30.0,27.4,11111222
Beacon,ioos:station:wmo:42874:2,2021-08-02T19:36:00Z,29.0384,-87.9218,30.0,27.4,11111222
Beacon,ioos:station:wmo:42874:2,2021-08-02T19:45:00Z,29.0384,-87.9218,30.0,27.3,11111222
Beacon,ioos:station:wmo:42874:2,2021-08-02T19:56:00Z,29.0384,-87.9217,30.0,27.2,11111222
Beacon,ioos:station:wmo:42874:2,2021-08-02T20:06:00Z,29.0384,-87.9218,30.0,27.1,11111222